Tracking 28799 objects as of 18-Apr-2024
HD Live streaming from Space Station
objects crossing your sky now

STARLINK-1672

Track STARLINK-1672 now!
10-day predictions
STARLINK-1672 is classified as:


NORAD ID: 46537
Int'l Code: 2020-070F
Perigee: 553.4 km
Apogee: 555.3 km
Inclination: 53.1 °
Period: 95.6 minutes
Semi major axis: 6925 km
RCS: Unknown
Launch date: October 6, 2020
Source: United States (US)
Launch site: AIR FORCE EASTERN TEST RANGE (AFETR)
Your satellite tracking list
Your tracking list is empty




NASA's NSSDC Master Catalog

Two Line Element Set (TLE):
1 46537U 20070F   24108.22365136  .00029772  00000-0  20085-2 0  9991
2 46537  53.0544  40.7283 0001372 112.1750 247.9385 15.06412224195282
Source of the keplerian elements: AFSPC